[Iaude] MPEC A167: 2024 AM4 [a=0.93,e=0.06,i=2.9,H=28.7]
    mpec at marsden.cfa.harvard.edu 
    mpec at marsden.cfa.harvard.edu
       
    Mon Jan 15 09:46:30 EST 2024
    
    
  
M.P.E.C. 2024-A167                             Issued 2024 January 15, 14:44 UT
     The Minor Planet Electronic Circulars contain information on unusual
         minor planets, routine data on comets and natural satellites,
         and occasional editorial announcements.  They are published
    on behalf of Division F of the International Astronomical Union by the
          Minor Planet Center, Smithsonian Astrophysical Observatory,
                          Cambridge, MA 02138, U.S.A.
			  
             Prepared using the Tamkin Foundation Computer Network
                              MPC at CFA.HARVARD.EDU
            URL https://www.minorplanetcenter.net/    ISSN 1523-6714
                                    2024 AM4                                    
Observations:
     K24A04M*1C2024 01 14.20935702 51 52.016+33 31 14.95         18.67GVEA167703
     K24A04M 1C2024 01 14.21143802 51 52.700+33 30 34.06         18.87GVEA167703
     K24A04M 1C2024 01 14.21351802 51 53.356+33 29 54.96         18.45GVEA167703
     K24A04M 1C2024 01 14.21560002 51 54.050+33 29 15.36         18.48GVEA167703
     K24A04M mC2024 01 14.25039902 52 07.738+33 17 52.69         18.63GVEA167V06
     K24A04M mC2024 01 14.25059102 52 07.824+33 17 48.66         18.58GVEA167V06
     K24A04M mC2024 01 14.25078402 52 07.918+33 17 44.92         18.86GVEA167V06
     K24A04M mC2024 01 14.25097602 52 08.000+33 17 41.14         18.79GVEA167V06
     K24A04M KC2024 01 14.32278902 52 53.210+32 53 33.00         18.36GVEA167V06
     K24A04M KC2024 01 14.32451502 52 54.570+32 52 58.40         18.88GVEA167V06
     K24A04M  C2024 01 14.32527602 53 53.376+33 10 59.63         18.50oVEA167T08
     K24A04M  C2024 01 14.32850902 53 53.796+33 10 01.88         18.76oVEA167T08
     K24A04M  C2024 01 14.33414802 53 54.665+33 08 17.77         18.30oVEA167T08
     K24A04M  C2024 01 14.34713302 53 57.070+33 04 16.79         18.66oVEA167T08
     K24A04M KB2024 01 14.50277 02 58 28.66 +32 26 49.4          19.3 GVEA167O46
     K24A04M KB2024 01 14.50677 02 58 28.56 +32 26 00.0          19.1 GVEA167O46
     K24A04M KB2024 01 14.51117 02 58 28.47 +32 25 06.9                VEA167O46
     K24A04M KB2024 01 14.51477 02 58 28.31 +32 24 23.8          19.2 GVEA167O46
     K24A04M KC2024 01 14.68853 03 01 16.44 +31 36 52.5          19.1 VZEA167M38
     K24A04M KC2024 01 14.69711 03 01 17.91 +31 35 27.2          19.5 VZEA167M38
     K24A04M 2C2024 01 14.87248403 02 41.101+31 14 17.19         18.5 GVEA167J04
     K24A04M KC2024 01 14.94608803 02 37.536+30 45 46.33         18.7 GVEA167Z80
     K24A04M KC2024 01 14.94796203 02 38.107+30 45 22.36         18.6 GVEA167Z80
     K24A04M  C2024 01 15.13966303 05 34.184+30 27 11.66         19.26GVEA167V06
     K24A04M  C2024 01 15.13982103 05 34.166+30 27 10.22         19.39GVEA167V06
     K24A04M  C2024 01 15.13998003 05 34.148+30 27 08.53         19.26GVEA167V06
     K24A04M  C2024 01 15.14013703 05 34.102+30 27 06.95         18.86GVEA167V06
     K24A04M  C2024 01 15.16695103 05 25.559+30 21 27.15         18.9 GVEA167H01
     K24A04M  C2024 01 15.17128803 05 25.347+30 20 39.62         18.9 GVEA167H01
     K24A04M  C2024 01 15.17735603 05 25.110+30 19 32.47         19.1 GVEA167H01
     K24A04M  C2024 01 15.18814503 05 24.856+30 17 31.16         19.0 GVEA167H01
     K24A04M KB2024 01 15.50537 03 08 28.12 +29 31 52.0          19.9 VqEA167Q06
     K24A04M KB2024 01 15.50783 03 08 27.96 +29 31 29.1          19.1 VqEA167Q06
     K24A04M KB2024 01 15.51030 03 08 27.84 +29 31 03.9          20.8 VqEA167Q06
Observer details:
703 Catalina Sky Survey.  Observers V. F. Carvajal, A. R. Gibbs.  Measurers T.
    Beuden, V. F. Carvajal, D. Fay, J. B. Fazekas, D. C. Fuls, A. R. Gibbs, A.
    D. Grauer, H. Groeller, J. K. Hogan, R. A. Kowalski, S. M. Larson, G. J.
    Leonard, D. Rankin, R. L. Seaman, F. C. Shelly, K. W. Wierzchos.  0.68-m
    Schmidt + 10K CCD.
H01 Magdalena Ridge Observatory, Socorro.  Observers W. H. Ryan, E. V. Ryan.
    Measurer W. H. Ryan.  2.4-m f/8.9 Ritchey-Chretien + CCD.
J04 ESA Optical Ground Station, Tenerife.  Observers D. Abreu, M. Micheli, F.
    Ocana, L. Conversi.  Measurers M. Micheli, F. Ocana, R. Kresken.
    1.0-m f/4.4 reflector + CCD.
M38 Harsona Observatory, Nyiregyhaza.  Observer T. Elek.  0.20-m f/3 reflector
    + CCD.
O46 Daocheng Glacier Observatory.  Observer Z. Wang.  0.25-m f/8 reflector +
    CMO.
Q06 Tarui Observatory, Tarui.  Observer H. Watanabe.  0.35-m f/1.9 Schmidt-
    Cassegrain + CMO.
T08 ATLAS-MLO, Mauna Loa.  Observers L. Denneau, R. Siverd, J. Tonry, H.
    Weiland.  Measurers L. Denneau, N. Erasmus, A. Fitzsimmons, A. Lawrence,
    J. Robinson, R. Siverd, J. Tonry, H. Weiland.  0.5-m Reflector + CCD.
V06 Catalina Sky Survey-Kuiper.  Observers K. W. Wierzchos, G. J. Leonard.
    Measurers T. Beuden, V. F. Carvajal, D. Fay, J. B. Fazekas, D. C. Fuls, A.
    R. Gibbs, A. D. Grauer, H. Groeller, J. K. Hogan, R. A. Kowalski, S. M.
    Larson, G. J. Leonard, D. Rankin, R. L. Seaman, F. C. Shelly, K. W.
    Wierzchos.  1.55-m reflector + 1K CCD.
Z80 Northolt Branch Observatory.  Observer G. Wells.  0.25-m f/8.0 Ritchey-
    Chretien + CCD.
Orbital elements:
2024 AM4                                                 Earth MOID = 0.0027 AU
Epoch 2023 Sept. 13.0 TT = JDT 2460200.5                Veres                   
M  38.07789              (2000.0)            P               Q                  
n   1.10363051     Peri.  186.84900     +0.47712252     +0.87758753             
a   0.9273712      Node   111.65782     -0.80390732     +0.45735848             
e   0.0593845      Incl.    2.88897     -0.35508749     +0.14374752             
P   0.89           H   28.72          G   0.15           U   6                  
Residuals in seconds of arc
240114 703  0.5-  0.2+    240114 T08  0.2+  0.0     240115 V06  0.0   0.1+
240114 703  0.0   0.8-    240114 T08  0.2+  0.1+    240115 V06  0.0   0.0
240114 703  0.1-  0.1+    240114 O46  0.0   0.7+    240115 V06  0.4-  0.0
240114 703  0.1+  0.6+    240114 O46  0.1-  0.5-    240115 H01  0.1+  0.0
240114 V06  0.1+  0.1+    240114 O46  0.3+  0.0     240115 H01  0.1+  0.0
240114 V06  0.0   0.1-    240114 O46  0.4-  1.2+    240115 H01  0.1+  0.1+
240114 V06  0.1+  0.0     240114 M38  0.5-  1.0-    240115 H01  0.1+  0.1+
240114 V06  0.0   0.1+    240114 M38  0.8+  0.0     240115 Q06  0.2+  0.8-
240114 V06  0.3+  0.3-    240114 J04  0.2-  0.0     240115 Q06  0.2-  0.4+
240114 V06  0.1-  0.0     240114 Z80  0.1-  0.3-    240115 Q06  0.1-  0.6-
240114 T08  0.3+  0.5-    240114 Z80  0.5-  0.1-
240114 T08  0.0   0.7+    240115 V06  0.0   0.0
Ephemeris:
2024 AM4                 a,e,i = 0.93, 0.06, 3                   q = 0.8723
Date    TT    R. A. (2000) Decl.     Delta      r    Elong.  Phase     V
2023 12 16    12 12 19.1 -56 14 34   0.02956 0.9722    65.2   113.2    25.4
...
2023 12 31    12 20 17.2 -54 33 15   0.01374 0.9796    73.8   105.5    23.3
...
2024 01 08    13 18 54.5 -49 26 57   0.0046100.9820    72.3   107.5    21.0
...
2024 01 14    02 49 14.4 +34 30 42   0.0036210.9852   116.0    63.8    18.7
2024 01 15    03 04 18.1 +30 51 03   0.0048350.9859   117.6    62.2    19.3
2024 01 16    03 12 56.3 +28 36 34   0.0060290.9865   118.0    61.7    19.8
...
2024 01 22    03 32 29.7 +23 34 46   0.01292 0.9897   115.3    64.0    21.5
...
2024 01 30    03 41 58.0 +21 47 09   0.02169 0.9922   109.0    69.8    22.8
...
2024 02 14    03 54 13.7 +20 53 52   0.03708 0.9922    96.4    81.5    24.4
M. P. C. Staff               (C) Copyright 2024 MPC           M.P.E.C. 2024-A167
    
    
More information about the Iaude
mailing list